Regional Weather Roundup
Issued by NWS

Home | Current Version | Previous Version | Graphics & Text | Print | Product List | Glossary On
Versions: 1 2 3 4 5 6 7 8 9 10 11 12 13 14 15 16 17 18 19 20 21 22 23 24 25 26 27 28 29 30 31 32 33 34 35 36 37 38 39 40 41 42 43 44 45 46 47 48 49 50
000
ASUS43 KOAX 230002
RWRNE

WEATHER ROUNDUP FOR NEBRASKA
NATIONAL WEATHER SERVICE OMAHA NE
700 PM CDT TUE AUG 22 2017

NOTES: SATELLITE DATA IS BEING USED TO AUGMENT CLOUD COVER ABOVE
       12000 FEET.
       "FAIR" INDICATES FEW OR NO CLOUDS BELOW 12,000 FEET WITH NO
       SIGNIFICANT WEATHER AND/OR OBSTRUCTIONS TO VISIBILITY.


NEZ001>004-019>022-054>056-230100-
NEBRASKA PANHANDLE

CITY           SKY/WX    TMP DP  RH WIND       PRES   REMARKS
SCOTTSBLUFF    SUNNY     84  49  29 SE12      30.14F
6HR MIN TEMP:  79; 6HR MAX TEMP:  85;

ALLIANCE       SUNNY     77  49  37 S17       30.16F
6HR MIN TEMP:  74; 6HR MAX TEMP:  80;

CHADRON        SUNNY     83  46  27 S15       30.11F
6HR MIN TEMP:  79; 6HR MAX TEMP:  85;

GORDON         FAIR      81  42  25 S8        30.16F
6HR MIN TEMP:  76; 6HR MAX TEMP:  83;

KIMBALL        SUNNY     80  51  37 SE20      30.21F
SIDNEY         SUNNY     79  51  37 S18G25    30.21F
6HR MIN TEMP:  75; 6HR MAX TEMP:  82;

$$

NEZ057>060-069>072-079>082-230100-
SOUTHWEST NEBRASKA

CITY           SKY/WX    TMP DP  RH WIND       PRES   REMARKS
NORTH PLATTE   SUNNY     76  57  51 E8        30.18F
6HR MIN TEMP:  74; 6HR MAX TEMP:  79;

IMPERIAL       SUNNY     80  46  30 SE13      30.19F
6HR MIN TEMP:  77; 6HR MAX TEMP:  82;

LEXINGTON      SUNNY     76  55  48 SE5       30.19F
MCCOOK         SUNNY     79  54  41 SE7       30.18F
6HR MIN TEMP:  76; 6HR MAX TEMP:  81;

OGALLALA       SUNNY     79  52  38 SE8       30.19F
$$

NEZ005>010-023>029-035>040-094-230100-
NORTH CENTRAL NEBRASKA

CITY           SKY/WX    TMP DP  RH WIND       PRES   REMARKS
VALENTINE      SUNNY     81  45  28 SE8       30.15F
6HR MIN TEMP:  75; 6HR MAX TEMP:  83;

AINSWORTH      SUNNY     74  54  50 E7        30.17F HAZE
BROKEN BOW     SUNNY     77  52  41 E6        30.18F
6HR MIN TEMP:  73; 6HR MAX TEMP:  79;

O`NEILL        SUNNY     74  51  43 CALM      30.18F
ORD            SUNNY     74  52  46 SW5       30.16F
6HR MIN TEMP:  74; 6HR MAX TEMP:  79;

THEDFORD       SUNNY     79  49  33 S7        30.19F
$$

NEZ041-046>049-061>064-073>077-083>087-230100-
SOUTH CENTRAL NEBRASKA

CITY           SKY/WX    TMP DP  RH WIND       PRES   REMARKS
GRAND ISLAND   SUNNY     74  51  44 NE5       30.18F
6HR MIN TEMP:  73; 6HR MAX TEMP:  77;

AURORA         SUNNY     72  54  53 CALM      30.18F
HASTINGS       SUNNY     75  50  41 N3        30.19F
6HR MIN TEMP:  73; 6HR MAX TEMP:  77;

HEBRON         SUNNY     76  51  41 N7        30.16S
HOLDREGE       SUNNY     72  55  54 NE5       30.20S
KEARNEY        SUNNY     73  53  49 NE5       30.19F
$$

NEZ011>018-030>034-042>045-230100-
NORTHEAST NEBRASKA

CITY           SKY/WX    TMP DP  RH WIND       PRES   REMARKS
NORFOLK        SUNNY     73  51  46 NW7       30.15F
6HR MIN TEMP:  72; 6HR MAX TEMP:  75;

ALBION         SUNNY     73  56  54 NE5       30.18S
BLAIR          SUNNY     73  52  48 NW8       30.15F
COLUMBUS       SUNNY     71  56  58 N5        30.18S
FREMONT        SUNNY     73  52  47 NW5       30.16F
TEKAMAH        SUNNY     73  52  47 N6        30.14F
6HR MIN TEMP:  73; 6HR MAX TEMP:  76;

WAYNE          SUNNY     72  52  49 NW3       30.16F
$$

NEZ050>053-065>068-078-088>093-230100-
SOUTHEAST NEBRASKA

CITY           SKY/WX    TMP DP  RH WIND       PRES   REMARKS
LINCOLN        SUNNY     74  52  46 N9        30.16F
6HR MIN TEMP:  74; 6HR MAX TEMP:  78;

OMAHA EPPLEY   MOSUNNY   75  54  47 NW8       30.13F
6HR MIN TEMP:  75; 6HR MAX TEMP:  78;

BEATRICE       SUNNY     74  56  54 N8        30.15S
FALLS CITY     SUNNY     73  49  42 N9        30.12S
6HR MIN TEMP:  73; 6HR MAX TEMP:  77;

NEBRASKA CITY  SUNNY     73  55  53 N8        30.14S
PLATTSMOUTH    MOSUNNY   73  51  45 NW8       30.14S
$$

NEZ044-045-051>053-067-230100-
OMAHA AREA

CITY           SKY/WX    TMP DP  RH WIND       PRES   REMARKS
OMAHA EPPLEY   MOSUNNY   75  54  47 NW8       30.13F
6HR MIN TEMP:  75; 6HR MAX TEMP:  78;

BLAIR          SUNNY     73  52  48 NW8       30.15F
FREMONT        SUNNY     73  52  47 NW5       30.16F
MILLARD        SUNNY     75  50  40 NW9       30.14F
OFFUTT AFB     SUNNY     75  49  40 N8        30.13F
PLATTSMOUTH    MOSUNNY   73  51  45 NW8       30.14S
WAHOO          FAIR      71  53  53 N5        30.16S
$$




USA.gov is the U.S. government's official web portal to all federal, state and local government web resources and services.